Tracking 21612 objects as of 20-Oct-2020
HD Live streaming from Space Station
objects crossing your sky now

USA 17

Track USA 17 now!
10-day predictions
USA 17 is classified as:


NORAD ID: 16625
Int'l Code: 1986-014F
Perigee: 398.3 km
Apogee: 1,782.7 km
Inclination: 63.3 °
Period: 106.9 minutes
Semi major axis: 7461 km
RCS: Unknown
Launch date: February 9, 1986
Source: United States (US)
Launch site: AIR FORCE WESTERN TEST RANGE (AFWTR)
aabbcc
Your satellite tracking list
Your tracking list is empty




NASA's NSSDC Master Catalog

Two Line Element Set (TLE):
1 16625U 86014F   20294.52009486 +.00000983 +00000-0 +10256-3 0  9997
2 16625 063.3001 228.1078 0927697 077.8559 292.4725 13.46997690062298
Source of the keplerian elements: AFSPC